Location: Altleiningen
(49.5078°N, 8.0741°E)
Time: 05:14:16
(UTC+00:00)

SME Rocket - Pass Details

Date: 03 March 2021
Orbit: 550 x 2652 km, 99.9° (Epoch: 11 April)

Event Time Altitude Azimuth Distance (km) Brightness Sun altitude
Rises 19:05:29 0° 16° (NNE) 5,116 7.7 -18.8°
Reaches altitude 10° 19:09:07 10° 19° (NNE) 3,803 7.0 -19.4°
Maximum altitude 19:17:37 68° 102° (ESE) 1,194 4.2 -20.7°
Drops below altitude 10° 19:23:03 10° 185° (S) 2,470 6.0 -21.6°
Sets 19:25:00 0° 188° (S) 3,231 6.7 -21.9°
